Погода в Свислочи

Беларусь     53°02′12″N   24°05′38″E
темп.,
°C
ветер,
м/с
пор.,
м/с
влажн.,
%
обл.,
%
осадки,
мм/ч
давл.,
гПа
погр.,
м
3 августа, вт
вт300:00+13юз38911 0.0 1010142
03:00+11зюз489339 0.1 1011152
06:00+13зюз3890100 0.0 1012195
09:00+15зюз488210 0.0 1013466
12:00+19з675928 0.1 10141509
15:00+19зюз5761100 0.1 10141406
18:00+20зюз476171 0.0 10141359
21:00+17зюз23717 0.0 101453
4 августа, ср
ср400:00+16ю2366100 0.0 101551
03:00+16ю356399 0.0 101593
06:00+14ю2382100 0.0 101557
09:00+17ю2377100 0.0 1016134
12:00+21ююв2357100 0.0 1015904
15:00+22ю2463100 2.0 1014994
18:00+19с2483100 6.3 1013255
21:00+15ссв2496100 23.6 1013157
5 августа, чт
чт500:00+14вюв259898 0.0 1013175
03:00+14всв239774 0.0 1013110
06:00+14св359626 0.0 1012220
09:00+16ссв458896 0.0 1012463
12:00+17св4481100 0.0 1011717
15:00+18св347699 0.1 1011824
18:00+20всв4570100 0.0 10091121
21:00+17св5984100 0.1 1007377
6 августа, пт
пт600:00+15св41092100 0.0 1006337
03:00+15св51098100 0.4 1003404
06:00+15св5998100 2.4 1002412
09:00+15ссв4898100 4.7 1002379
12:00+15ссв4798100 5.9 1003367
15:00+15с3698100 12.2 1003355
18:00+14ссз3598100 2.8 1004337
21:00+14зсз2598100 5.0 1005296
7 августа, сб
сб700:00+14зюз3498100 0.1 1006282
03:00+14з4898100 0.1 1007359
06:00+13з369856 0.0 1008190
09:00+16зюз459050 0.0 1009455
12:00+20зюз576822 0.0 10091235
15:00+22зюз685938 0.2 10091774
18:00+20юз3673100 0.0 1010197
21:00+19юз3677100 0.0 1011127